Time,TemperatureF,DewpointF,PressureIn,WindDirection,WindDirectionDegrees,WindSpeedMPH,WindSpeedGustMPH,Humidity,HourlyPrecipIn,Conditions,Clouds,dailyrainin,SoftwareType,DateUTC
2013-01-11 00:52:00,34.0,34.0,-100.00,South,185,13.0,17.0,99,0.00,,,0.00,,2013-01-11 06:52:00,
2013-01-11 01:02:00,34.0,34.0,-100.00,South,190,14.0,17.0,99,0.00,,,0.00,,2013-01-11 07:02:00,
2013-01-11 01:12:00,34.0,34.0,-100.00,South,185,13.0,17.0,99,0.00,,,0.00,,2013-01-11 07:12:00,
2013-01-11 01:22:00,34.0,34.0,-100.00,South,180,12.0,16.0,99,0.00,,,0.00,,2013-01-11 07:22:00,
2013-01-11 01:32:00,34.0,34.0,-100.00,South,185,13.0,16.0,99,0.00,,,0.00,,2013-01-11 07:32:00,
2013-01-11 01:42:00,34.0,34.0,-100.00,South,180,12.0,16.0,99,0.00,,,0.00,,2013-01-11 07:42:00,
2013-01-11 01:52:00,34.0,34.0,-100.00,South,180,12.0,16.0,99,0.00,,,0.00,,2013-01-11 07:52:00,
2013-01-11 02:02:00,34.0,34.0,-100.00,South,175,12.0,15.0,99,0.00,,,0.00,,2013-01-11 08:02:00,
2013-01-11 02:12:00,34.0,34.0,-100.00,South,180,12.0,17.0,99,0.00,,,0.00,,2013-01-11 08:12:00,
2013-01-11 02:22:00,34.0,34.0,-100.00,South,180,14.0,16.0,99,0.00,,,0.00,,2013-01-11 08:22:00,
2013-01-11 02:32:00,34.0,34.0,-100.00,South,175,12.0,16.0,99,0.00,,,0.00,,2013-01-11 08:32:00,
2013-01-11 02:42:00,34.0,34.0,-100.00,South,180,12.0,16.0,99,0.00,,,0.00,,2013-01-11 08:42:00,
2013-01-11 02:52:00,34.0,34.0,-100.00,South,180,13.0,16.0,99,0.00,,,0.00,,2013-01-11 08:52:00,
2013-01-11 03:02:00,34.0,34.0,-100.00,South,180,15.0,18.0,99,0.00,,,0.00,,2013-01-11 09:02:00,
2013-01-11 03:12:00,34.0,34.0,-100.00,South,185,14.0,18.0,99,0.00,,,0.00,,2013-01-11 09:12:00,
2013-01-11 03:22:00,35.0,34.0,-100.00,South,185,13.0,17.0,99,0.00,,,0.00,,2013-01-11 09:22:00,
2013-01-11 03:32:00,35.0,34.0,-100.00,South,185,15.0,19.0,99,0.00,,,0.00,,2013-01-11 09:32:00,
2013-01-11 03:42:00,34.0,34.0,-100.00,SSW,195,16.0,19.0,99,0.00,,,0.00,,2013-01-11 09:42:00,
2013-01-11 03:52:00,34.0,34.0,-100.00,South,185,14.0,17.0,99,0.00,,,0.00,,2013-01-11 09:52:00,
2013-01-11 04:02:00,34.0,34.0,-100.00,South,190,14.0,17.0,99,0.00,,,0.00,,2013-01-11 10:02:00,
2013-01-11 04:12:00,34.0,34.0,-100.00,South,190,12.0,16.0,99,0.00,,,0.00,,2013-01-11 10:12:00,
2013-01-11 04:22:00,34.0,34.0,-100.00,SSW,195,14.0,16.0,99,0.00,,,0.00,,2013-01-11 10:22:00,
2013-01-11 04:32:00,34.0,34.0,-100.00,SSW,195,14.0,17.0,99,0.00,,,0.00,,2013-01-11 10:32:00,
2013-01-11 04:42:00,34.0,34.0,-100.00,South,185,13.0,16.0,99,0.00,,,0.00,,2013-01-11 10:42:00,
2013-01-11 04:52:00,34.0,34.0,-100.00,South,185,11.0,14.0,99,0.00,,,0.00,,2013-01-11 10:52:00,
2013-01-11 05:02:00,34.0,34.0,-100.00,South,180,12.0,15.0,99,0.00,,,0.00,,2013-01-11 11:02:00,
2013-01-11 05:12:00,34.0,34.0,-100.00,South,185,13.0,15.0,99,0.00,,,0.00,,2013-01-11 11:12:00,
2013-01-11 05:22:00,34.0,34.0,-100.00,South,185,14.0,19.0,99,0.00,,,0.00,,2013-01-11 11:22:00,
2013-01-11 05:32:00,34.0,34.0,-100.00,South,190,14.0,18.0,99,0.00,,,0.00,,2013-01-11 11:32:00,
2013-01-11 05:42:00,34.0,34.0,-100.00,SSW,195,12.0,17.0,99,0.00,,,0.00,,2013-01-11 11:42:00,
2013-01-11 05:52:00,34.0,34.0,-100.00,SSW,195,16.0,18.0,99,0.00,,,0.00,,2013-01-11 11:52:00,
2013-01-11 06:03:00,34.0,34.0,-100.00,South,190,16.0,20.0,99,0.00,,,0.00,,2013-01-11 12:03:00,
2013-01-11 06:12:00,34.0,34.0,-100.00,South,185,16.0,18.0,100,0.00,,,0.00,,2013-01-11 12:12:00,
2013-01-11 06:22:00,34.0,34.0,-100.00,South,190,14.0,18.0,99,0.00,,,0.00,,2013-01-11 12:22:00,
2013-01-11 06:32:00,34.0,34.0,-100.00,South,185,13.0,17.0,99,0.00,,,0.00,,2013-01-11 12:32:00,
2013-01-11 06:42:00,34.0,34.0,-100.00,South,185,16.0,20.0,99,0.00,,,0.00,,2013-01-11 12:42:00,
2013-01-11 06:52:00,34.0,34.0,-100.00,South,185,14.0,18.0,99,0.00,,,0.00,,2013-01-11 12:52:00,
2013-01-11 07:02:00,34.0,34.0,-100.00,South,180,12.0,16.0,99,0.00,,,0.00,,2013-01-11 13:02:00,
2013-01-11 07:12:00,34.0,34.0,-100.00,South,180,12.0,16.0,99,0.00,,,0.00,,2013-01-11 13:12:00,
2013-01-11 07:22:00,34.0,34.0,-100.00,South,185,12.0,16.0,99,0.00,,,0.00,,2013-01-11 13:22:00,
2013-01-11 07:33:00,34.0,34.0,-100.00,South,185,11.0,17.0,99,0.00,,,0.00,,2013-01-11 13:33:00,
2013-01-11 07:42:00,35.0,34.0,-100.00,South,185,13.0,17.0,99,0.00,,,0.00,,2013-01-11 13:42:00,
2013-01-11 07:52:00,34.0,34.0,-100.00,South,175,12.0,16.0,99,0.00,,,0.00,,2013-01-11 13:52:00,
2013-01-11 08:03:00,34.0,34.0,-100.00,South,175,14.0,17.0,99,0.00,,,0.00,,2013-01-11 14:03:00,
2013-01-11 08:12:00,34.0,34.0,-100.00,South,175,12.0,17.0,99,0.00,,,0.00,,2013-01-11 14:12:00,
2013-01-11 08:22:00,34.0,34.0,-100.00,South,175,14.0,16.0,99,0.00,,,0.00,,2013-01-11 14:22:00,
2013-01-11 08:33:00,34.0,34.0,-100.00,South,180,16.0,19.0,99,0.00,,,0.00,,2013-01-11 14:33:00,
2013-01-11 08:42:00,34.0,34.0,-100.00,South,185,15.0,20.0,99,0.00,,,0.00,,2013-01-11 14:42:00,
2013-01-11 08:53:00,35.0,34.0,-100.00,SSW,195,14.0,19.0,99,0.00,,,0.00,,2013-01-11 14:53:00,
2013-01-11 09:03:00,35.0,34.0,-100.00,SSW,195,15.0,19.0,99,0.00,,,0.00,,2013-01-11 15:03:00,
2013-01-11 09:33:00,35.0,34.0,-100.00,SSW,205,11.0,15.0,99,0.00,,,0.00,,2013-01-11 15:33:00,
2013-01-11 10:22:00,35.0,34.0,-100.00,SSW,205,14.0,19.0,99,0.00,,,0.00,,2013-01-11 16:22:00,
2013-01-11 11:33:00,36.0,36.0,-100.00,South,190,15.0,21.0,99,0.00,,,0.00,,2013-01-11 17:33:00,
2013-01-11 11:43:00,36.0,36.0,-100.00,SSW,195,14.0,17.0,99,0.00,,,0.00,,2013-01-11 17:43:00,
2013-01-11 11:53:00,36.0,36.0,-100.00,SSW,195,14.0,18.0,99,0.00,,,0.00,,2013-01-11 17:53:00,
2013-01-11 12:03:00,36.0,36.0,-100.00,SSW,195,14.0,19.0,99,0.00,,,0.00,,2013-01-11 18:03:00,
2013-01-11 12:12:00,36.0,36.0,-100.00,SSW,200,16.0,18.0,99,0.00,,,0.00,,2013-01-11 18:12:00,
2013-01-11 12:23:00,36.0,36.0,-100.00,SSW,200,12.0,19.0,99,0.00,,,0.00,,2013-01-11 18:23:00,
2013-01-11 12:33:00,36.0,36.0,-100.00,SSW,195,11.0,16.0,99,0.00,,,0.00,,2013-01-11 18:33:00,
2013-01-11 12:43:00,36.0,36.0,-100.00,SSW,195,12.0,14.0,99,0.00,,,0.00,,2013-01-11 18:43:00,
2013-01-11 13:02:00,36.0,36.0,-100.00,South,180,10.0,12.0,99,0.00,,,0.00,,2013-01-11 19:02:00,
2013-01-11 13:12:00,36.0,36.0,-100.00,South,180,11.0,12.0,99,0.00,,,0.00,,2013-01-11 19:12:00,
2013-01-11 13:22:00,36.0,36.0,-100.00,South,180,10.0,11.0,99,0.00,,,0.00,,2013-01-11 19:22:00,
2013-01-11 14:12:00,36.0,36.0,-100.00,South,170,11.0,14.0,99,0.00,,,0.00,,2013-01-11 20:12:00,
2013-01-11 14:22:00,36.0,36.0,-100.00,South,170,10.0,12.0,99,0.00,,,0.00,,2013-01-11 20:22:00,
2013-01-11 14:33:00,36.0,36.0,-100.00,South,170,10.0,14.0,99,0.00,,,0.00,,2013-01-11 20:33:00,
2013-01-11 15:12:00,36.0,36.0,-100.00,South,170,10.0,14.0,99,0.00,,,0.00,,2013-01-11 21:12:00,
2013-01-11 16:12:00,37.0,37.0,-100.00,South,180,11.0,12.0,99,0.00,,,0.00,,2013-01-11 22:12:00,
2013-01-11 16:22:00,38.0,37.0,-100.00,South,190,12.0,15.0,99,0.00,,,0.00,,2013-01-11 22:22:00,
2013-01-11 16:33:00,38.0,37.0,-100.00,South,185,10.0,16.0,99,0.00,,,0.00,,2013-01-11 22:33:00,
2013-01-11 16:42:00,38.0,37.0,-100.00,South,180,11.0,14.0,99,0.00,,,0.00,,2013-01-11 22:42:00,
2013-01-11 16:52:00,38.0,37.0,-100.00,South,180,11.0,14.0,99,0.00,,,0.00,,2013-01-11 22:52:00,
2013-01-11 17:32:00,37.0,37.0,-100.00,South,180,12.0,13.0,99,0.00,,,0.00,,2013-01-11 23:32:00,
2013-01-11 18:12:00,38.0,37.0,-100.00,South,190,11.0,15.0,99,0.00,,,0.00,,2013-01-12 00:12:00,
2013-01-11 18:22:00,38.0,37.0,-100.00,South,190,9.0,12.0,99,0.00,,,0.00,,2013-01-12 00:22:00,
2013-01-11 19:02:00,37.0,37.0,-100.00,SSW,210,12.0,15.0,99,0.00,,,0.00,,2013-01-12 01:02:00,
2013-01-11 19:12:00,38.0,37.0,-100.00,SW,215,14.0,17.0,99,0.00,,,0.00,,2013-01-12 01:12:00,
2013-01-11 19:22:00,38.0,37.0,-100.00,SW,225,14.0,17.0,99,0.00,,,0.00,,2013-01-12 01:22:00,
2013-01-11 20:02:00,36.0,36.0,-100.00,WSW,240,11.0,16.0,99,0.00,,,0.00,,2013-01-12 02:02:00,
2013-01-11 20:12:00,36.0,36.0,-100.00,WSW,245,12.0,15.0,99,0.00,,,0.00,,2013-01-12 02:12:00,
2013-01-11 20:22:00,36.0,36.0,-100.00,WSW,240,11.0,14.0,99,0.00,,,0.00,,2013-01-12 02:22:00,
2013-01-11 20:32:00,36.0,36.0,-100.00,WSW,245,11.0,14.0,99,0.00,,,0.00,,2013-01-12 02:32:00,
2013-01-11 20:42:00,36.0,36.0,-100.00,WSW,250,10.0,16.0,99,0.00,,,0.00,,2013-01-12 02:42:00,
2013-01-11 21:12:00,34.0,34.0,-100.00,West,260,15.0,22.0,99,0.00,,,0.00,,2013-01-12 03:12:00,
2013-01-11 21:32:00,33.0,32.0,-100.00,West,275,13.0,17.0,99,0.00,,,0.00,,2013-01-12 03:32:00,
2013-01-11 21:42:00,33.0,32.0,-100.00,West,270,14.0,20.0,99,0.00,,,0.00,,2013-01-12 03:42:00,
2013-01-11 21:52:00,32.0,32.0,-100.00,WSW,255,12.0,17.0,99,0.00,,,0.00,,2013-01-12 03:52:00,
2013-01-11 22:02:00,32.0,32.0,-100.00,West,275,15.0,20.0,99,0.00,,,0.00,,2013-01-12 04:02:00,
2013-01-11 22:32:00,31.0,30.0,-100.00,West,280,19.0,25.0,99,0.00,,,0.00,,2013-01-12 04:32:00,
2013-01-11 22:52:00,29.0,28.0,-100.00,WNW,285,21.0,29.0,99,0.00,,,0.00,,2013-01-12 04:52:00,
2013-01-11 23:03:00,29.0,28.0,-100.00,WNW,285,16.0,27.0,99,0.00,,,0.00,,2013-01-12 05:03:00,
2013-01-11 23:12:00,29.0,28.0,-100.00,WNW,295,18.0,27.0,99,0.00,,,0.00,,2013-01-12 05:12:00,
2013-01-11 23:42:00,27.0,27.0,-100.00,West,275,24.0,29.0,99,0.00,,,0.00,,2013-01-12 05:42:00,